Time,TemperatureF,DewpointF,PressureIn,WindDirection,WindDirectionDegrees,WindSpeedMPH,WindSpeedGustMPH,Humidity,HourlyPrecipIn,Conditions,Clouds,dailyrainin,SoftwareType,DateUTC
2013-05-10 10:08:00,66.9,61.6,29.99,SW,218,2.0,2.0,83,0.00,,,0.00,Wunderground v.1.15,2013-05-10 14:08:00,
2013-05-10 10:09:00,66.9,61.9,29.99,SW,222,2.0,2.0,84,0.00,,,0.00,Wunderground v.1.15,2013-05-10 14:09:00,
2013-05-10 10:11:00,67.0,62.0,29.99,SW,217,2.0,9.0,84,0.00,,,0.00,Wunderground v.1.15,2013-05-10 14:11:00,
2013-05-10 10:13:00,67.0,61.7,29.99,SSW,193,2.0,9.0,83,0.00,,,0.00,Wunderground v.1.15,2013-05-10 14:13:00,
2013-05-10 10:16:00,67.1,61.8,29.99,SW,218,2.0,9.0,83,0.00,,,0.00,Wunderground v.1.15,2013-05-10 14:16:00,
2013-05-10 10:17:00,67.1,61.8,29.99,SSW,199,2.0,9.0,83,0.00,,,0.00,Wunderground v.1.15,2013-05-10 14:17:00,
2013-05-10 10:19:00,67.2,61.9,29.99,SSW,211,3.0,9.0,83,0.00,,,0.00,Wunderground v.1.15,2013-05-10 14:19:00,
2013-05-10 10:21:00,67.2,61.9,29.99,WSW,239,3.0,9.0,83,0.00,,,0.00,Wunderground v.1.15,2013-05-10 14:21:00,
2013-05-10 10:24:00,67.3,62.0,29.99,SSW,203,3.0,9.0,83,0.00,,,0.00,Wunderground v.1.15,2013-05-10 14:24:00,
2013-05-10 10:25:00,67.4,62.1,29.99,SSW,201,3.0,9.0,83,0.00,,,0.00,Wunderground v.1.15,2013-05-10 14:25:00,
2013-05-10 10:31:00,67.5,62.2,29.99,SW,234,2.0,9.0,83,0.00,,,0.00,Wunderground v.1.15,2013-05-10 14:31:00,
2013-05-10 10:32:00,67.6,62.6,29.99,SW,215,2.0,9.0,84,0.00,,,0.00,Wunderground v.1.15,2013-05-10 14:32:00,
2013-05-10 10:34:00,67.6,62.3,29.99,SSW,203,2.0,9.0,83,0.00,,,0.00,Wunderground v.1.15,2013-05-10 14:34:00,
2013-05-10 10:36:00,67.6,61.9,29.99,SSW,192,3.0,9.0,82,0.00,,,0.00,Wunderground v.1.15,2013-05-10 14:36:00,
2013-05-10 10:37:00,67.6,61.9,30.00,SSW,195,3.0,9.0,82,0.00,,,0.00,Wunderground v.1.15,2013-05-10 14:37:00,
2013-05-10 10:39:00,67.6,62.3,30.00,WSW,247,3.0,9.0,83,0.00,,,0.00,Wunderground v.1.15,2013-05-10 14:39:00,
2013-05-10 10:40:00,67.6,62.3,30.00,WSW,244,3.0,9.0,83,0.00,,,0.00,Wunderground v.1.15,2013-05-10 14:40:00,
2013-05-10 10:41:00,67.6,62.3,30.00,SW,235,3.0,9.0,83,0.00,,,0.00,Wunderground v.1.15,2013-05-10 14:41:00,
2013-05-10 10:45:00,67.6,62.6,30.00,WSW,238,2.0,9.0,84,0.00,,,0.00,Wunderground v.1.15,2013-05-10 14:45:00,
2013-05-10 10:46:00,67.6,62.3,30.00,SSW,202,2.0,9.0,83,0.00,,,0.00,Wunderground v.1.15,2013-05-10 14:46:00,
2013-05-10 10:47:00,67.6,62.6,30.00,SW,215,2.0,9.0,84,0.00,,,0.00,Wunderground v.1.15,2013-05-10 14:47:00,
2013-05-10 10:48:00,67.6,62.3,30.00,West,259,2.0,9.0,83,0.00,,,0.00,Wunderground v.1.15,2013-05-10 14:48:00,
2013-05-10 10:50:00,67.6,62.6,30.00,SSW,206,1.0,5.0,84,0.00,,,0.00,Wunderground v.1.15,2013-05-10 14:50:00,
2013-05-10 10:53:00,67.7,62.7,30.00,SSW,213,1.0,9.0,84,0.00,,,0.00,Wunderground v.1.15,2013-05-10 14:53:00,
2013-05-10 10:55:00,67.7,62.7,30.00,SSW,207,1.0,9.0,84,0.00,,,0.00,Wunderground v.1.15,2013-05-10 14:55:00,
2013-05-10 10:59:00,67.9,62.9,30.00,SSW,198,1.0,1.0,84,0.00,,,0.00,Wunderground v.1.15,2013-05-10 14:59:00,
2013-05-10 11:01:00,67.9,62.9,30.00,SW,225,1.0,1.0,84,0.00,,,0.00,Wunderground v.1.15,2013-05-10 15:01:00,
2013-05-10 11:02:00,68.0,63.0,30.00,SW,225,1.0,9.0,84,0.00,,,0.00,Wunderground v.1.15,2013-05-10 15:02:00,
2013-05-10 11:04:00,68.1,63.1,30.00,SW,227,1.0,9.0,84,0.00,,,0.00,Wunderground v.1.15,2013-05-10 15:04:00,
2013-05-10 11:05:00,68.1,63.1,30.00,SSW,201,2.0,9.0,84,0.00,,,0.00,Wunderground v.1.15,2013-05-10 15:05:00,
2013-05-10 11:07:00,68.2,63.2,30.00,SW,231,1.0,9.0,84,0.00,,,0.00,Wunderground v.1.15,2013-05-10 15:07:00,
2013-05-10 11:09:00,68.3,63.6,30.00,WSW,254,1.0,9.0,85,0.00,,,0.00,Wunderground v.1.15,2013-05-10 15:09:00,
2013-05-10 11:11:00,68.3,63.3,30.00,WSW,242,2.0,2.0,84,0.00,,,0.00,Wunderground v.1.15,2013-05-10 15:11:00,
2013-05-10 11:15:00,68.4,63.4,30.00,WSW,257,1.0,9.0,84,0.00,,,0.00,Wunderground v.1.15,2013-05-10 15:15:00,
2013-05-10 11:16:00,68.4,63.4,30.00,WSW,257,1.0,9.0,84,0.00,,,0.00,Wunderground v.1.15,2013-05-10 15:16:00,
2013-05-10 11:18:00,68.4,63.0,30.01,West,263,1.0,9.0,83,0.00,,,0.00,Wunderground v.1.15,2013-05-10 15:18:00,
2013-05-10 11:19:00,68.5,63.1,30.00,WSW,244,1.0,9.0,83,0.00,,,0.00,Wunderground v.1.15,2013-05-10 15:19:00,
2013-05-10 11:20:00,68.5,62.8,30.01,SSW,209,2.0,9.0,82,0.00,,,0.00,Wunderground v.1.15,2013-05-10 15:20:00,
2013-05-10 11:25:00,68.8,63.1,30.01,WNW,295,2.0,9.0,82,0.00,,,0.00,Wunderground v.1.15,2013-05-10 15:25:00,
2013-05-10 11:26:00,68.9,63.2,30.01,WNW,292,2.0,9.0,82,0.00,,,0.00,Wunderground v.1.15,2013-05-10 15:26:00,
2013-05-10 11:28:00,69.0,63.6,30.01,SW,227,1.0,9.0,83,0.00,,,0.00,Wunderground v.1.15,2013-05-10 15:28:00,
2013-05-10 11:33:00,69.2,63.8,30.00,NW,308,1.0,9.0,83,0.00,,,0.00,Wunderground v.1.15,2013-05-10 15:33:00,
2013-05-10 11:35:00,69.2,63.5,30.00,WNW,295,0.0,9.0,82,0.00,,,0.00,Wunderground v.1.15,2013-05-10 15:35:00,
2013-05-10 11:36:00,69.2,63.5,30.00,WSW,242,0.0,9.0,82,0.00,,,0.00,Wunderground v.1.15,2013-05-10 15:36:00,